Taunton, MA

3:55 AM EDT on July 23, 2017 (GMT -0400)
Taunton Municipal

Weather History for KTAN - October, 2013

Change the Weather History Date:

Wednesday, October 9, 2013

  Actual Average Record
Temperature  
Mean Temperature 50 °F -  
Max Temperature 64 °F 65 °F 86 °F (2011)
Min Temperature 37 °F 41 °F 25 °F (1953)
Degree Days  
Heating Degree Days 14    
Moisture  
Dew Point 40 °F    
Average Humidity 88    
Maximum Humidity 100    
Minimum Humidity 48    
Precipitation  
Precipitation 0.00 in - - ()
Sea Level Pressure  
Sea Level Pressure 30.38 in    
Wind  
Wind Speed 1 mph (ENE)    
Max Wind Speed 13 mph    
Max Gust Speed 21 mph    
Visibility 4 miles    
Events Fog    
Averages and records for this station are not official NWS values.
T = Trace of Precipitation, MM = Missing Value Source: NWS Daily Summary

Daily Weather History Graph

Daily Weather History Graph

Search for Another Location

Airport or City:

Trip Planner

Search our weather history database for the weather conditions in past years. The results will help you decide how hot, cold, wet, or windy it might be!

Date:

Astronomy

Oct. 09, 2013 Rise Set
Actual Time 6:49 AM EDT 6:11 PM EDT
Civil Twilight 6:22 AM EDT 6:39 PM EDT
Nautical Twilight 5:49 AM EDT 7:12 PM EDT
Astronomical Twilight 5:17 AM EDT 7:44 PM EDT
Moon 11:45 AM EDT (10/9) 9:39 PM EDT (10/9)
Length of Visible Light 12h 17m
Length of Day
11h 22m
Waxing Crescent, 25% of the Moon is Illuminated
Oct 9
Waxing Crescent
Oct 11
First Quarter
Oct 18
Full
Oct 26
Last Quarter
Nov 3
New

Hourly Weather History & Observations

Time (EDT) Temp. Dew Point Humidity Pressure Visibility Wind Dir Wind Speed Gust Speed Precip Events Conditions
12:43 AM 42.1 °F 41.0 °F 96% 30.36 in 1.5 mi Calm Calm - N/A   Clear
12:47 AM 42.8 °F 41.0 °F 93% 30.36 in 0.8 mi Calm Calm - N/A   Clear
12:52 AM 42.1 °F 39.9 °F 92% 30.36 in 0.8 mi Calm Calm - N/A   Clear
1:05 AM 41.0 °F 39.0 °F 93% 30.36 in 1.5 mi Calm Calm - N/A   Clear
1:15 AM 42.1 °F 39.9 °F 92% 30.37 in 1.0 mi Calm Calm - N/A   Clear
1:28 AM 41.0 °F 39.9 °F 96% 30.37 in 2.5 mi Calm Calm - N/A   Clear
1:35 AM 41.0 °F 39.0 °F 93% 30.37 in 6.0 mi Calm Calm - N/A   Clear
1:47 AM 39.2 °F 39.2 °F 100% 30.37 in 1.8 mi Calm Calm - N/A   Clear
1:52 AM 39.9 °F 39.0 °F 97% 30.38 in 1.0 mi Calm Calm - N/A   Clear
2:05 AM 39.9 °F 37.9 °F 93% 30.37 in 2.0 mi Calm Calm - N/A   Clear
2:14 AM 39.9 °F 39.0 °F 97% 30.37 in 1.2 mi Calm Calm - N/A   Clear
2:22 AM 39.9 °F 37.9 °F 93% 30.37 in 1.0 mi Calm Calm - N/A   Mist
2:35 AM 39.9 °F 37.9 °F 93% 30.37 in 0.5 mi Calm Calm - N/A Fog Fog
2:44 AM 39.9 °F 37.9 °F 93% 30.37 in 1.2 mi Calm Calm - N/A   Partly Cloudy
2:46 AM 39.2 °F 37.4 °F 93% 30.37 in 2.0 mi Calm Calm - N/A   Partly Cloudy
2:49 AM 39.2 °F 37.4 °F 93% 30.37 in 0.8 mi Calm Calm - N/A   Mist
2:52 AM 39.9 °F 37.9 °F 93% 30.37 in 0.5 mi Calm Calm - N/A Fog Fog
3:00 AM 39.0 °F 37.0 °F 93% 30.37 in 1.2 mi Calm Calm - N/A   Clear
3:02 AM 39.0 °F 37.0 °F 93% 30.37 in 2.0 mi Calm Calm - N/A   Clear
3:10 AM 39.0 °F 37.0 °F 93% 30.37 in 9.0 mi Calm Calm - N/A   Clear
3:43 AM 39.0 °F 37.0 °F 93% 30.37 in 1.5 mi Calm Calm - N/A   Clear
3:50 AM 37.4 °F 37.4 °F 100% 30.37 in 1.2 mi Calm Calm - N/A   Clear
3:52 AM 37.9 °F 36.0 °F 93% 30.38 in 1.5 mi Calm Calm - N/A   Clear
3:55 AM 37.9 °F 37.0 °F 97% 30.37 in 4.0 mi Calm Calm - N/A   Clear
4:10 AM 37.9 °F 37.0 °F 97% 30.38 in 1.8 mi Calm Calm - N/A   Clear
4:18 AM 37.9 °F 37.0 °F 97% 30.37 in 1.2 mi Calm Calm - N/A   Clear
4:22 AM 37.9 °F 36.0 °F 93% 30.38 in 2.0 mi Calm Calm - N/A   Clear
4:30 AM 37.9 °F 37.0 °F 97% 30.38 in 3.0 mi Calm Calm - N/A   Clear
4:33 AM 37.9 °F 37.0 °F 97% 30.38 in 1.8 mi Calm Calm - N/A   Clear
4:43 AM 37.0 °F 36.0 °F 96% 30.38 in 4.0 mi Calm Calm - N/A   Clear
4:52 AM 37.0 °F 36.0 °F 96% 30.38 in 4.0 mi Calm Calm - N/A   Clear
5:05 AM 37.0 °F 36.0 °F 96% 30.38 in 1.8 mi Calm Calm - N/A   Clear
5:12 AM 37.9 °F 36.0 °F 93% 30.38 in 0.8 mi Calm Calm - N/A   Clear
5:23 AM 37.0 °F 36.0 °F 96% 30.39 in 1.5 mi Calm Calm - N/A   Clear
5:26 AM 37.0 °F 36.0 °F 96% 30.38 in 3.0 mi Calm Calm - N/A   Clear
5:52 AM 37.0 °F 36.0 °F 96% 30.38 in 9.0 mi Calm Calm - N/A   Clear
6:52 AM 39.0 °F 37.0 °F 93% 30.40 in 10.0 mi Calm Calm - N/A   Clear
7:52 AM 46.0 °F 44.1 °F 93% 30.42 in 10.0 mi Calm Calm - N/A   Clear
8:52 AM 55.9 °F 46.9 °F 72% 30.43 in 10.0 mi Variable 3.5 mph - N/A   Clear
9:52 AM 61.0 °F 45.0 °F 56% 30.44 in 10.0 mi East 11.5 mph 19.6 mph N/A   Mostly Cloudy
10:52 AM 62.1 °F 43.0 °F 50% 30.44 in 10.0 mi ENE 11.5 mph 20.7 mph N/A   Clear
11:52 AM 63.0 °F 44.1 °F 50% 30.43 in 10.0 mi Variable 6.9 mph 18.4 mph N/A   Clear
12:52 PM 64.0 °F 45.0 °F 50% 30.41 in 10.0 mi East 12.7 mph 18.4 mph N/A   Clear
1:52 PM 63.0 °F 43.0 °F 48% 30.41 in 10.0 mi East 10.4 mph 17.3 mph N/A   Clear
2:52 PM 62.1 °F 42.1 °F 48% 30.39 in 10.0 mi East 6.9 mph 17.3 mph N/A   Clear
3:52 PM 61.0 °F 42.1 °F 50% 30.39 in 10.0 mi East 6.9 mph - N/A   Clear
4:52 PM 57.9 °F 44.1 °F 60% 30.39 in 10.0 mi East 6.9 mph - N/A   Clear
5:52 PM 55.9 °F 45.0 °F 67% 30.39 in 10.0 mi NE 3.5 mph - N/A   Clear
6:52 PM 48.9 °F 45.0 °F 86% 30.37 in 10.0 mi Calm Calm - N/A   Clear
7:52 PM 45.0 °F 43.0 °F 93% 30.37 in 10.0 mi Calm Calm - N/A   Clear
8:52 PM 43.0 °F 42.1 °F 97% 30.37 in 10.0 mi Calm Calm - N/A   Clear
9:52 PM 43.0 °F 41.0 °F 93% 30.37 in 10.0 mi Calm Calm - N/A   Clear
10:19 PM 42.1 °F 41.0 °F 96% 30.36 in 1.8 mi Calm Calm - N/A   Clear
10:26 PM 42.1 °F 41.0 °F 96% 30.36 in 3.0 mi Calm Calm - N/A   Clear
10:37 PM 42.1 °F 41.0 °F 96% 30.36 in 1.8 mi Calm Calm - N/A   Clear
10:52 PM 42.1 °F 39.9 °F 92% 30.37 in 1.0 mi Calm Calm - N/A   Clear
11:19 PM 42.1 °F 39.9 °F 92% 30.35 in 2.0 mi Calm Calm - N/A   Clear
11:27 PM 42.1 °F 39.9 °F 92% 30.35 in 3.0 mi Calm Calm - N/A   Clear
11:29 PM 42.1 °F 39.9 °F 92% 30.35 in 1.5 mi Calm Calm - N/A   Clear
11:36 PM 42.1 °F 39.9 °F 92% 30.36 in 1.0 mi Calm Calm - N/A   Clear
11:39 PM 42.1 °F 39.9 °F 92% 30.36 in 2.0 mi Calm Calm - N/A   Clear
11:52 PM 42.1 °F 39.9 °F 92% 30.35 in 5.0 mi Calm Calm - N/A   Clear
11:58 PM 42.1 °F 39.9 °F 92% 30.35 in 1.8 mi Calm Calm - N/A   Clear